Location: Newark
(15.4608°S, 41.1635°W)
Time: 19:26:44
(UTC+00:00)

Vanguard 2 Rocket - All Passes

Search period start: 04 March 2021 00:00
Search period end: 14 March 2021 00:00
Orbit: 554 x 3325 km, 32.9° (Epoch: 03 March)

Date Brightness Start Highest point End Pass type
(mag) Time Alt. Az. Time Alt. Az. Time Alt. Az.
04 Mar - 00:41:29 10° SW 00:47:47 69° SSE 00:52:00 10° ENE visible
04 Mar - 02:59:16 10° NW 03:00:09 11° NW 03:01:00 10° NNW night (unlit)
04 Mar - 12:07:23 10° N 12:18:24 19° NE 12:30:33 10° ENE daylight
04 Mar - 14:18:01 10° NW 14:36:49 55° NE 14:54:35 10° ESE daylight
04 Mar - 16:34:57 10° WNW 16:55:36 76° SSW 17:10:43 10° SE daylight
04 Mar - 18:57:46 10° W 19:14:10 41° SSW 19:24:36 10° SE daylight
04 Mar - 21:21:56 10° SW 21:32:05 28° S 21:38:31 10° ESE visible
04 Mar - 23:40:30 10° SW 23:48:01 45° SSE 23:52:42 10° E visible
05 Mar - 01:56:47 10° W 02:00:55 25° NW 02:04:17 10° NNE night (unlit)
05 Mar - 11:13:59 10° NNE 11:16:15 10° NE 11:18:34 10° NE daylight
05 Mar - 13:17:49 10° NNW 13:34:28 41° NE 13:52:07 10° ESE daylight
05 Mar - 15:32:35 10° NW 15:53:06 88° NNE 16:10:10 10° ESE daylight
05 Mar - 17:53:17 10° W 18:12:07 50° SSW 18:24:47 10° SE daylight
05 Mar - 20:17:59 10° WSW 20:30:45 31° S 20:38:49 10° SE daylight
05 Mar - 22:38:53 10° SW 22:47:47 36° SSE 22:53:12 10° E visible
06 Mar - 00:55:35 10° WSW 01:01:47 57° NW 01:05:57 10° NE visible
06 Mar - 12:18:35 10° NNW 12:32:22 29° NE 12:48:13 10° E daylight
06 Mar - 14:31:07 10° NW 14:50:32 72° NE 15:09:02 10° ESE daylight
06 Mar - 16:49:30 10° WNW 17:09:44 62° SSW 17:24:41 10° SE daylight
06 Mar - 19:13:24 10° WSW 19:28:59 37° SSW 19:39:00 10° SE daylight
06 Mar - 21:36:25 10° SW 21:47:03 33° S 21:53:33 10° ESE visible
06 Mar - 23:54:20 10° WSW 00:02:20 79° SSE 00:07:07 10° ENE visible
07 Mar - 02:13:32 10° WNW 02:14:33 11° NW 02:15:30 10° NNW night (unlit)
07 Mar - 11:20:44 10° N 11:30:33 18° NE 11:42:03 10° E daylight
07 Mar - 13:30:31 10° NW 13:48:05 56° NE 14:07:07 10° ESE daylight
07 Mar - 15:46:38 10° WNW 16:07:04 75° SSW 16:24:10 10° SE daylight
07 Mar - 18:08:44 10° W 18:26:46 43° SSW 18:39:00 10° SE daylight
07 Mar - 20:33:01 10° WSW 20:45:49 34° S 20:53:43 10° ESE daylight
07 Mar - 22:52:43 10° SW 23:02:23 54° SSE 23:07:56 10° E visible
08 Mar - 01:10:19 10° W 01:15:25 26° NW 01:19:09 10° NNE visible
08 Mar - 12:30:45 10° NNW 12:45:59 41° NE 13:04:09 10° ESE daylight
08 Mar - 14:44:44 10° NW 15:04:19 89° NE 15:23:10 10° ESE daylight
08 Mar - 17:04:33 10° W 17:24:11 52° SSW 17:38:46 10° SE daylight
08 Mar - 19:28:51 10° WSW 19:44:02 36° S 19:53:43 10° ESE daylight
08 Mar - 21:50:30 10° SW 22:01:54 44° SSE 22:08:28 10° E visible
09 Mar - 00:08:29 10° WSW 00:16:15 55° NW 00:20:59 10° NE visible
09 Mar - 11:31:56 10° N 11:44:17 28° NE 11:59:45 10° E daylight
09 Mar - 13:43:43 10° NW 14:01:42 73° NE 14:21:31 10° ESE daylight
09 Mar - 16:01:13 10° WNW 16:21:18 62° SSW 16:38:10 10° SE daylight
09 Mar - 18:24:18 10° WSW 18:41:44 40° S 18:53:31 10° ESE daylight
09 Mar - 20:47:33 10° SW 21:00:50 39° S 21:08:42 10° ESE daylight
09 Mar - 23:06:37 10° WSW 23:16:39 87° SSE 23:22:15 10° ENE visible
10 Mar - 01:26:42 10° WNW 01:28:53 12° NW 01:30:47 10° NNW visible
10 Mar - 10:34:37 10° N 10:42:56 17° NE 10:53:04 10° E daylight
10 Mar - 12:43:33 10° NW 12:59:26 57° NE 13:19:06 10° ESE daylight
10 Mar - 14:58:51 10° WNW 15:18:18 74° SSW 15:37:09 10° SE daylight
10 Mar - 17:19:57 10° W 17:38:58 45° SSW 17:53:04 10° SE daylight
10 Mar - 19:43:52 10° WSW 19:59:10 38° S 20:08:40 10° ESE daylight
10 Mar - 22:04:24 10° SW 22:16:29 63° SSE 22:23:05 10° ENE visible
11 Mar - 00:23:14 10° W 00:29:47 29° NW 00:34:10 10° NNE visible
11 Mar - 11:44:10 10° NNW 11:57:41 41° NE 12:15:40 10° ESE daylight
11 Mar - 13:57:24 10° WNW 14:15:27 89° SSW 14:35:38 10° ESE daylight
11 Mar - 16:16:14 10° W 16:35:52 52° SSW 16:52:18 10° SE daylight
11 Mar - 18:39:42 10° WSW 18:56:53 39° S 19:08:20 10° ESE daylight
11 Mar - 21:01:41 10° SW 21:15:40 51° SSE 21:23:34 10° E visible
11 Mar - 23:20:48 10° WSW 23:30:29 56° NW 23:36:02 10° NE visible
12 Mar - 10:45:45 10° N 10:56:28 27° NE 11:10:53 10° E daylight
12 Mar - 12:56:50 10° NW 13:12:57 74° NE 13:33:29 10° ESE daylight
12 Mar - 15:13:26 10° WNW 15:32:38 61° SSW 15:51:11 10° SE daylight
12 Mar - 17:35:27 10° WSW 17:54:03 42° S 18:07:41 10° ESE daylight
12 Mar - 19:58:25 10° WSW 20:14:12 45° SSE 20:23:38 10° E daylight
12 Mar - 22:18:20 10° WSW 22:30:40 88° NNW 22:37:18 10° ENE visible
13 Mar - 00:39:20 10° W 00:43:06 14° NW 00:46:08 10° NNW visible
13 Mar - 09:49:01 10° NNE 09:55:37 15° NE 10:03:46 10° ENE daylight
13 Mar - 11:57:02 10° NW 12:11:02 57° NE 12:30:36 10° ESE daylight
13 Mar - 14:11:34 10° WNW 14:29:31 73° SSW 14:49:37 10° ESE daylight
13 Mar - 16:31:35 10° W 16:50:48 46° SSW 17:06:43 10° ESE daylight
13 Mar - 18:54:41 10° WSW 19:12:05 42° S 19:23:19 10° ESE daylight
13 Mar - 21:15:38 10° WSW 21:30:12 69° SSE 21:38:06 10° ENE visible
13 Mar - 23:35:33 10° WSW 23:43:55 32° NW 23:49:13 10° NNE visible
